Tracking 20232 objects as of 18-Jan-2020
HD Live streaming from Space Station
objects crossing your sky now

SL-3 R/B

Track SL-3 R/B now!
10-day predictions


NORAD ID: 7275
Int'l Code: 1974-025B
Perigee: 836.1 km
Apogee: 919.9 km
Inclination: 81.2 °
Period: 102.4 minutes
Semi major axis: 7249 km
RCS: 7.5013 m2 (large)
Launch date: April 24, 1974
Source: Commonwealth of Independent States (former USSR) (CIS)
Launch site: PLESETSK MISSILE AND SPACE COMPLEX (PKMTR)

Note: This is a ROCKET BODY
aabbcc
Your satellite tracking list
Your tracking list is empty




NASA's NSSDC Master Catalog

Two Line Element Set (TLE):
1  7275U 74025B   20017.48992480 -.00000096 +00000-0 -64623-4 0  9995
2  7275 081.2446 121.1362 0057830 099.6541 261.1167 14.06643039345801
Source of the keplerian elements: AFSPC